This demonstration page uses our WeatherBlox Daily Observations layout. Learn more.

Left ArrowRight Arrow

39.51506, -84.39828

Hourly Observations for August 7, 2016

Temp ( °F °C ) Dew Point ( °F °C ) Humidity (%) Winds ( mph kmh ) Pressure ( in mb ) Visibility ( mi km ) Precip ( " mm )
12:15 am 00:15 Clear 69 20.8 62 16.6 77 77 N N/A 29.94 1014 10 16 N/A
12:35 am 00:35 Clear 69 20.8 63 17.1 79 79 N N/A 29.94 1014 10 16 N/A
12:55 am 00:55 Clear 69 20.8 62 16.7 77 77 N N/A 29.94 1014 10 16 N/A
1:15 am 01:15 Clear 69 20.8 63 17 79 79 N N/A 29.94 1014 10 16 N/A
1:35 am 01:35 Clear 69 20.8 63 17 79 79 N N/A 29.94 1014 10 16 N/A
1:55 am 01:55 Clear 69 20.7 63 17.4 81 81 N N/A 29.94 1014 10 16 N/A
2:15 am 02:15 Clear 69 20.8 63 17.2 80 80 N N/A 29.94 1014 10 16 N/A
2:35 am 02:35 Partly Cloudy 69 20.8 63 17.3 80 80 N N/A 29.94 1014 10 16 N/A
2:55 am 02:55 Partly Cloudy 67 19.2 61 16 82 82 N N/A 29.94 1014 10 16 N/A
3:15 am 03:15 Clear 69 20.4 63 17 81 81 N N/A 29.94 1014 10 16 N/A
3:35 am 03:35 Clear 67 19.5 61 16.3 82 82 N N/A 29.94 1014 10 16 N/A
3:55 am 03:55 Clear 65 18.1 59 15.1 83 83 N N/A 29.94 1014 10 16 N/A
4:15 am 04:15 Clear 64 18 59 15 83 83 N N/A 29.94 1014 10 16 N/A
4:35 am 04:35 Clear 64 18 59 15 83 83 NNE 3 6 29.97 1015 10 16 N/A
4:55 am 04:55 Clear 64 18 59 15 83 83 N N/A 29.97 1015 10 16 N/A
5:15 am 05:15 Clear 64 18 59 15.1 83 83 N N/A 29.97 1015 10 16 N/A
5:35 am 05:35 Clear 64 18 59 15 83 83 N 5 7 29.97 1015 10 16 N/A
5:55 am 05:55 Clear 66 18.9 60 15.8 82 82 N N/A 29.97 1015 10 16 N/A
6:15 am 06:15 Clear 64 18 59 15 83 83 N 3 6 29.97 1015 10 16 N/A
6:35 am 06:35 Clear 64 17.5 58 14.5 83 83 N N/A 29.97 1015 10 16 N/A
6:55 am 06:55 Sunny 64 18 59 15.2 84 84 N N/A 29.97 1015 10 16 N/A
7:15 am 07:15 Sunny 64 18 59 15 83 83 N N/A 29.97 1015 10 16 N/A
7:35 am 07:35 Sunny 65 18.4 59 15.2 82 82 N N/A 29.97 1015 10 16 N/A
7:55 am 07:55 Sunny 69 20.8 63 17.1 79 79 N N/A 30.00 1016 10 16 N/A
8:15 am 08:15 Sunny 69 20.8 62 16.6 77 77 N N/A 30.00 1016 10 16 N/A
8:35 am 08:35 Sunny 71 21.6 61 16.3 72 72 N N/A 30.00 1016 10 16 N/A
8:55 am 08:55 Sunny 74 23.5 63 17.2 68 68 N N/A 30.00 1016 10 16 N/A
9:15 am 09:15 Sunny 74 23.6 62 16.5 65 65 N 3 6 30.00 1016 10 16 N/A
9:35 am 09:35 Sunny 77 25.1 61 16.1 57 57 N N/A 30.00 1016 10 16 N/A
9:55 am 09:55 Sunny 80 26.5 60 15.3 50 50 NNE 3 6 30.00 1016 10 16 N/A
10:15 am 10:15 Sunny 81 27.1 52 11.3 37 37 SSE 3 6 30.00 1016 10 16 N/A
10:35 am 10:35 Sunny 82 27.7 52 11.1 36 36 N N/A 30.00 1016 10 16 N/A
10:55 am 10:55 Sunny 82 28 51 10.6 34 34 N N/A 30.00 1016 10 16 N/A
11:15 am 11:15 Sunny 83 28.3 51 10.4 33 33 E 6 9 29.97 1015 10 16 N/A
11:35 am 11:35 Sunny 83 28.4 50 10.1 32 32 N N/A 29.97 1015 10 16 N/A
11:55 am 11:55 Sunny 84 29 48 9.1 29 29 N N/A 29.97 1015 10 16 N/A
12:15 pm 12:15 Mostly Cloudy 82 28 50 9.9 32 32 SW 3 6 30.00 1016 10 16 N/A
12:35 pm 12:35 Mostly Cloudy 82 28 50 10.1 33 33 N N/A 30.00 1016 10 16 N/A
12:55 pm 12:55 Cloudy 83 28.3 50 9.8 31 31 E 3 6 29.97 1015 10 16 N/A
1:15 pm 13:15 Partly Cloudy 87 30.4 48 9 26 26 N N/A 29.97 1015 10 16 N/A
1:35 pm 13:35 Partly Cloudy 90 32.1 50 9.9 25 25 NNE 5 7 29.97 1015 10 16 N/A
1:55 pm 13:55 Partly Cloudy 84 29 47 8.6 28 28 NNE 3 6 29.97 1015 10 16 N/A
2:15 pm 14:15 Mostly Cloudy 90 32.1 51 10.8 27 27 SE 3 6 29.97 1015 10 16 N/A
2:35 pm 14:35 Partly Cloudy 90 32.1 49 9.3 24 24 ENE 5 7 29.94 1014 10 16 N/A
2:55 pm 14:55 Partly Cloudy 90 32.1 47 8.1 22 22 N N/A 29.94 1014 10 16 N/A
3:15 pm 15:15 Mostly Cloudy 90 32.1 47 8.1 22 22 NE 7 11 29.94 1014 10 16 N/A
3:35 pm 15:35 Cloudy 87 30.7 49 9.2 26 26 NE 6 9 29.94 1014 10 16 N/A
3:55 pm 15:55 Mostly Cloudy 90 32.1 49 9.2 24 24 NNE 5 7 29.94 1014 10 16 N/A
4:15 pm 16:15 Sunny 90 32.1 48 8.7 23 23 E 7 11 29.94 1014 10 16 N/A
4:35 pm 16:35 Partly Cloudy 90 32.1 48 8.7 23 23 ESE 7 11 29.94 1014 10 16 N/A
4:55 pm 16:55 Mostly Cloudy 90 32.1 50 10.2 26 26 ENE 5 7 29.94 1014 10 16 N/A
5:15 pm 17:15 Mostly Cloudy 87 30.7 49 9.7 27 27 ENE 9 15 29.94 1014 10 16 N/A
5:35 pm 17:35 Partly Cloudy 87 30.7 50 10.1 28 28 E 6 9 29.94 1014 10 16 N/A
5:55 pm 17:55 Partly Cloudy 90 32.1 50 9.8 25 25 ESE 5 7 29.91 1013 10 16 N/A
6:15 pm 18:15 Sunny 90 32.1 49 9.7 25 25 N N/A 29.91 1013 10 16 N/A
6:35 pm 18:35 Sunny 90 32.1 49 9.7 25 25 N N/A 29.91 1013 10 16 N/A
6:55 pm 18:55 Sunny 90 32.1 49 9.7 25 25 ESE 5 7 29.91 1013 10 16 N/A
7:15 pm 19:15 Mostly Cloudy 90 32.1 50 9.8 25 25 ESE 10 17 29.91 1013 10 16 N/A
7:35 pm 19:35 Cloudy 84 29.1 48 9 28 28 E 9 15 29.91 1013 10 16 N/A
7:55 pm 19:55 Mostly Cloudy 85 29.3 48 8.9 28 28 E 6 9 29.91 1013 10 16 N/A
8:15 pm 20:15 Partly Cloudy 83 28.6 49 9.4 30 30 E 7 11 29.91 1013 10 16 N/A
8:35 pm 20:35 Partly Cloudy 82 28 51 10.4 33 33 ENE 5 7 29.91 1013 10 16 N/A
8:55 pm 20:55 Mostly Cloudy 81 27.2 52 11 36 36 ENE 3 6 29.97 1015 10 16 N/A
9:15 pm 21:15 Partly Cloudy 78 25.3 57 14 50 50 N N/A 29.97 1015 10 16 N/A
9:35 pm 21:35 Partly Cloudy 74 23.6 60 15.4 60 60 NNW 3 6 29.97 1015 10 16 N/A
9:55 pm 21:55 Mostly Cloudy 74 23.6 61 16.3 64 64 N N/A 29.97 1015 10 16 N/A
10:15 pm 22:15 Partly Cloudy 74 23.6 62 16.6 65 65 N N/A 29.97 1015 10 16 N/A
10:35 pm 22:35 Clear 74 23.3 62 16.6 66 66 N N/A 29.97 1015 10 16 N/A
10:55 pm 22:55 Clear 71 21.5 60 15.4 68 68 N N/A 29.97 1015 10 16 N/A
11:15 pm 23:15 Clear 70 21.1 59 15.2 69 69 N N/A 29.97 1015 10 16 N/A
11:35 pm 23:35 Clear 69 20.8 60 15.5 72 72 N 5 7 29.97 1015 10 16 N/A
11:55 pm 23:55 Clear 70 20.9 59 14.9 69 69 N 3 6 29.97 1015 10 16 N/A

Powered by AerisWeather